{"data":{"norad_id":61556,"intl_designator":"2024-185E","name":"QIANFAN-23","alt_names":[],"object_type":"PAYLOAD","status":"ACTIVE","operator":null,"country":"PRC","launch_date":"2024-10-15","launch_site_code":"TAISC","launch_vehicle":null,"mission":null,"orbit_class":"UNKNOWN","rcs_meters":null,"size_class":null,"mass_kg":null,"dimensions":null,"purposes":[],"wikipedia_slug":null,"has_3d_model":false,"image_url":null,"decayed_at":null,"tle_current":{"epoch":"2026-09-22T19:57:34.165152Z","epoch_age_seconds":96008,"freshness":"FRESH","line1":"1 61556U 24185E   26265.83164543  .00000233  00000+0  10975-3 0  9990","line2":"2 61556  88.9853  45.0725 0009410 115.3123 244.9041 14.16554465109969","mean_motion":14.16554465,"eccentricity":0.000941,"inclination_deg":88.9853,"raan_deg":45.0725,"arg_perigee_deg":115.3123,"mean_anomaly_deg":244.9041,"bstar":0.00010975,"rev_number":10996,"period_min":101.65511002784,"perigee_km":830.23945744981,"apogee_km":843.81839972742,"semimajor_km":7215.1659285886,"source":"CELESTRAK","updated_at":"2026-09-23T09:00:20.903743Z"}}}